Weather History for Massena, NY

Change the Weather History Date:

Friday, April 12, 2013

  Actual Average Record
Temperature  
Mean Temperature 32 °F 42 °F  
Max Temperature 35 °F 52 °F 77 °F (2006)
Min Temperature 29 °F 32 °F 11 °F (1976)
Degree Days  
Heating Degree Days 33 23  
Month to date heating degree days 336 312  
Since 1 July heating degree days 6868 7443  
Cooling Degree Days 0 0  
Month to date cooling degree days 0 0  
Year to date cooling degree days 0 0  
Moisture  
Dew Point 29 °F    
Average Humidity 72    
Maximum Humidity 100    
Minimum Humidity 43    
Precipitation  
Precipitation 0.62 in 0.10 in 0.62 in (2013)
Month to date precipitation 1.08 1.11  
Year to date precipitation 3.80 7.15  
Sea Level Pressure  
Sea Level Pressure 29.85 in    
Wind  
Wind Speed 15 mph (ENE)    
Max Wind Speed 26 mph    
Max Gust Speed 36 mph    
Visibility 4 miles    
Events Rain , Snow    
T = Trace of Precipitation, MM = Missing Value Source: NWS Daily Summary

Daily Weather History Graph

Daily Weather History Graph

Search for Another Location

Airport:

Trip Planner

Search our weather history database for the weather conditions in past years. The results will help you decide how hot, cold, wet, or windy it might be!

Date:

Astronomy

Apr. 12, 2013 Rise Set
Actual Time 6:19 AM EDT 7:41 PM EDT
Civil Twilight 5:49 AM EDT 8:11 PM EDT
Nautical Twilight 5:12 AM EDT 8:48 PM EDT
Astronomical Twilight 4:33 AM EDT 9:27 PM EDT
Moon 7:22 AM EDT (4/12) 10:16 PM EDT (4/12)
Length of Visible Light 14h 22m
Length of Day
13h 21m
Waxing Crescent, 5% of the Moon is Illuminated
Apr 12
Waxing Crescent
Apr 18
First Quarter
Apr 25
Full
May 2
Last Quarter
May 9
New

Hourly Weather History & Observations

Time (EDT) Temp. Windchill Dew Point Humidity Pressure Visibility Wind Dir Wind Speed Gust Speed Precip Events Conditions
12:53 AM 34.0 °F 24.6 °F 15.1 °F 46% 30.20 in 10.0 mi ENE 13.8 mph - N/A   Overcast
1:53 AM 34.0 °F 24.2 °F 15.1 °F 46% 30.18 in 10.0 mi ENE 15.0 mph 20.7 mph N/A   Overcast
2:53 AM 34.0 °F 21.8 °F 14.0 °F 44% 30.15 in 10.0 mi ENE 23.0 mph 31.1 mph N/A   Overcast
3:53 AM 33.1 °F 22.2 °F 15.1 °F 48% 30.14 in 10.0 mi ENE 17.3 mph 27.6 mph 0.00 in Rain Light Rain
4:53 AM 30.9 °F 19.4 °F 18.0 °F 59% 30.12 in 10.0 mi ENE 17.3 mph 27.6 mph 0.00 in   Overcast
5:33 AM 30.2 °F 18.1 °F 21.2 °F 69% 30.10 in 8.0 mi ENE 18.4 mph 25.3 mph 0.01 in Rain Light Freezing Rain
5:53 AM 30.0 °F 17.9 °F 21.9 °F 72% 30.07 in 7.0 mi ENE 18.4 mph 25.3 mph 0.02 in Rain Light Freezing Rain
6:01 AM 30.2 °F 18.1 °F 21.2 °F 69% 30.07 in 6.0 mi ENE 18.4 mph 28.8 mph 0.00 in   Overcast
6:26 AM 30.2 °F 18.5 °F 23.0 °F 75% 30.05 in 9.0 mi ENE 17.3 mph 29.9 mph 0.01 in Rain Light Freezing Rain
6:53 AM 30.0 °F 17.2 °F 25.0 °F 82% 30.06 in 5.0 mi ENE 20.7 mph 29.9 mph 0.02 in Rain Light Freezing Rain
7:53 AM 28.9 °F 15.1 °F 25.0 °F 85% 30.01 in 6.0 mi ENE 23.0 mph 32.2 mph 0.01 in Rain Light Freezing Rain
8:26 AM 30.2 °F 17.8 °F 26.6 °F 86% 29.96 in 8.0 mi ENE 19.6 mph 29.9 mph 0.00 in   Overcast
8:40 AM 30.2 °F 17.1 °F 26.6 °F 86% 29.94 in 1.8 mi ENE 21.9 mph 31.1 mph 0.00 in Snow Light Snow
8:53 AM 30.0 °F 16.9 °F 27.0 °F 88% 29.95 in 1.8 mi ENE 21.9 mph - 0.00 in Snow Light Snow
9:02 AM 30.2 °F 17.4 °F 26.6 °F 86% 29.93 in 1.2 mi ENE 20.7 mph 26.5 mph 0.01 in Snow Light Snow
9:17 AM 30.2 °F 17.1 °F 28.4 °F 93% 29.92 in 2.0 mi ENE 21.9 mph 35.7 mph 0.03 in   Overcast
9:25 AM 30.2 °F 17.1 °F 28.4 °F 93% 29.91 in 3.0 mi ENE 21.9 mph 31.1 mph 0.04 in Rain Light Freezing Rain
9:49 AM 30.2 °F 17.4 °F 28.4 °F 93% 29.88 in 3.0 mi ENE 20.7 mph 31.1 mph 0.06 in Rain Light Freezing Rain
9:53 AM 32.0 °F 19.8 °F 28.9 °F 88% 29.90 in 3.0 mi ENE 20.7 mph 31.1 mph 0.07 in Rain Light Freezing Rain
9:58 AM 32.0 °F 19.5 °F 28.4 °F 87% 29.88 in 3.0 mi ENE 21.9 mph 29.9 mph 0.00 in Rain Light Freezing Rain
10:05 AM 32.0 °F 18.9 °F 28.4 °F 87% 29.87 in 2.5 mi ENE 24.2 mph 29.9 mph 0.01 in Rain Light Freezing Rain
10:11 AM 32.0 °F 19.5 °F 28.4 °F 87% 29.86 in 3.0 mi ENE 21.9 mph 29.9 mph 0.01 in Rain Light Freezing Rain
10:21 AM 32.0 °F 18.9 °F 28.4 °F 87% 29.86 in 2.5 mi ENE 24.2 mph 31.1 mph 0.02 in Rain Light Freezing Rain
10:40 AM 32.0 °F 19.5 °F 30.2 °F 93% 29.86 in 3.0 mi ENE 21.9 mph 27.6 mph 0.05 in Rain Light Freezing Rain
10:45 AM 32.0 °F 19.8 °F 30.2 °F 93% 29.86 in 2.5 mi ENE 20.7 mph 28.8 mph 0.06 in Rain Light Freezing Rain
10:53 AM 32.0 °F 18.9 °F 30.0 °F 92% 29.87 in 2.5 mi ENE 24.2 mph 32.2 mph 0.07 in Rain Light Freezing Rain
11:21 AM 33.8 °F 22.2 °F 30.2 °F 87% 29.84 in 3.0 mi ENE 20.7 mph 32.2 mph 0.05 in Rain Light Freezing Rain
11:30 AM 33.8 °F 22.2 °F 30.2 °F 87% 29.83 in 2.5 mi ENE 20.7 mph 29.9 mph 0.06 in Rain Light Freezing Rain
11:37 AM 33.8 °F 21.6 °F 30.2 °F 87% 29.82 in 3.0 mi ENE 23.0 mph 31.1 mph 0.07 in Rain Light Freezing Rain
11:45 AM 33.8 °F 23.2 °F 30.2 °F 87% 29.81 in 2.5 mi ENE 17.3 mph 31.1 mph 0.09 in Rain Light Freezing Rain
11:53 AM 33.1 °F 21.9 °F 30.0 °F 89% 29.83 in 1.8 mi ENE 18.4 mph 27.6 mph 0.11 in Rain Light Freezing Rain
12:03 PM 33.8 °F 23.5 °F 30.2 °F 87% 29.81 in 2.5 mi ENE 16.1 mph 34.5 mph 0.02 in Rain Light Freezing Rain
12:10 PM 33.8 °F 22.5 °F 30.2 °F 87% 29.82 in 2.0 mi ENE 19.6 mph 32.2 mph 0.04 in Rain Rain
12:21 PM 33.8 °F 23.2 °F 30.2 °F 87% 29.83 in 2.0 mi ENE 17.3 mph 26.5 mph 0.09 in Rain Heavy Rain
12:28 PM 33.8 °F 21.9 °F 30.2 °F 87% 29.82 in 2.0 mi ENE 21.9 mph 32.2 mph 0.11 in Rain Heavy Rain
12:41 PM 33.8 °F 23.2 °F 30.2 °F 87% 29.81 in 2.0 mi ENE 17.3 mph 27.6 mph 0.15 in Rain Rain
12:53 PM 33.1 °F 22.2 °F 30.9 °F 92% 29.83 in 2.5 mi ENE 17.3 mph 27.6 mph 0.18 in Rain Rain
1:00 PM 33.8 °F 23.2 °F 30.2 °F 87% 29.81 in 3.0 mi ENE 17.3 mph 25.3 mph 0.01 in Rain Rain
1:36 PM 33.8 °F 22.8 °F 30.2 °F 87% 29.80 in 1.8 mi ENE 18.4 mph 25.3 mph 0.05 in Snow Light Snow
3:50 PM 33.8 °F 23.2 °F 30.2 °F 87% 29.74 in 1.8 mi ENE 17.3 mph - 0.02 in Rain Light Rain
3:53 PM 33.1 °F 22.2 °F 30.9 °F 92% 29.75 in 1.8 mi ENE 17.3 mph - 0.02 in Rain Light Rain
4:03 PM 33.8 °F 22.8 °F 30.2 °F 87% 29.73 in 3.0 mi ENE 18.4 mph 23.0 mph 0.00 in Rain Light Rain
4:48 PM 33.8 °F 22.8 °F 30.2 °F 87% 29.72 in 2.5 mi ENE 18.4 mph - 0.00 in Rain Light Rain
4:53 PM 34.0 °F 24.6 °F 32.0 °F 92% 29.74 in 3.0 mi ENE 13.8 mph 24.2 mph 0.00 in Rain Light Rain
5:41 PM 33.8 °F 23.9 °F 32.0 °F 93% 29.72 in 2.5 mi ENE 15.0 mph - 0.00 in   Overcast
5:53 PM 34.0 °F 24.6 °F 32.0 °F 92% 29.74 in 2.5 mi ENE 13.8 mph - 0.00 in Rain Light Rain
6:14 PM 33.8 °F 23.9 °F 32.0 °F 93% 29.72 in 1.5 mi ENE 15.0 mph - 0.01 in Rain Light Rain
6:26 PM 33.8 °F 24.8 °F 32.0 °F 93% 29.72 in 2.5 mi ENE 12.7 mph - 0.01 in Rain Light Rain
6:43 PM 33.8 °F 25.8 °F 32.0 °F 93% 29.72 in 4.0 mi ENE 10.4 mph - 0.02 in Rain Light Rain
6:53 PM 34.0 °F 25.5 °F 32.0 °F 92% 29.74 in 4.0 mi ENE 11.5 mph - 0.03 in Rain Light Rain
7:18 PM 33.8 °F 25.8 °F 32.0 °F 93% 29.73 in 1.8 mi ENE 10.4 mph - 0.00 in Rain Light Rain
7:28 PM 33.8 °F 25.8 °F 32.0 °F 93% 29.72 in 1.2 mi ENE 10.4 mph - 0.00 in Rain Light Rain
7:36 PM 33.8 °F 24.3 °F 32.0 °F 93% 29.72 in 2.0 mi ENE 13.8 mph - 0.00 in   Overcast
7:45 PM 33.8 °F 25.8 °F 32.0 °F 93% 29.72 in 4.0 mi ENE 10.4 mph - 0.00 in Rain Light Rain
7:53 PM 34.0 °F 26.0 °F 32.0 °F 92% 29.74 in 3.0 mi ENE 10.4 mph - 0.00 in   Overcast
8:02 PM 33.8 °F 24.8 °F 32.0 °F 93% 29.72 in 2.5 mi ENE 12.7 mph - 0.00 in   Overcast
8:12 PM 33.8 °F 25.3 °F 32.0 °F 93% 29.72 in 3.0 mi ENE 11.5 mph - 0.00 in   Overcast
8:21 PM 33.8 °F 25.3 °F 32.0 °F 93% 29.72 in 2.5 mi ENE 11.5 mph - 0.00 in   Overcast
8:53 PM 34.0 °F 26.6 °F 33.1 °F 96% 29.75 in 2.5 mi East 9.2 mph - 0.00 in Rain Light Rain
9:13 PM 33.8 °F 27.7 °F 33.8 °F 100% 29.74 in 3.0 mi East 6.9 mph - 0.01 in Rain Light Rain
9:32 PM 33.8 °F 28.6 °F 33.8 °F 100% 29.74 in 3.0 mi ENE 5.8 mph - 0.01 in Rain Light Rain
9:53 PM 34.0 °F 29.8 °F 33.1 °F 96% 29.75 in 5.0 mi East 4.6 mph - 0.01 in   Overcast
10:08 PM 33.8 °F - 33.8 °F 100% 29.74 in 7.0 mi Calm Calm - N/A   Overcast
10:41 PM 33.8 °F 29.6 °F 33.8 °F 100% 29.74 in 10.0 mi SSE 4.6 mph - N/A   Overcast
10:53 PM 35.1 °F 32.2 °F 34.0 °F 96% 29.75 in 10.0 mi East 3.5 mph - N/A   Overcast
11:08 PM 33.8 °F - 33.8 °F 100% 29.73 in 10.0 mi Calm Calm - N/A   Overcast
11:53 PM 34.0 °F 31.0 °F 34.0 °F 100% 29.75 in 9.0 mi ENE 3.5 mph - N/A   Overcast